Simultaneous Nadir Overpasses (SNOs) Predictions

Prediction of SNOs between GOES-16 and TERRA Satellite Orbit:

Table of predicted SNOs for the next 14.0 days since TLE Epoch: 11/25/2023
Index Date Time (GOES-16) GOES-16 Lat,Lon TERRA Lat,Lon Distance(km) Time Diff (sec)
1 11/25/2023 14:51:52 -0.05, -75.23 -0.35, -73.77 166.09 80
2 11/26/2023 03:14:46 0.05, -75.22 -0.66, -78.69 394.66 80
3 11/28/2023 02:55:23 0.04, -75.27 0.20, -74.66 69.80 80
4 11/28/2023 15:18:09 -0.04, -75.31 0.84, -79.54 480.47 80
5 11/30/2023 15:01:25 -0.03, -75.37 0.00, -75.50 15.10 80
6 12/02/2023 14:42:01 -0.02, -75.44 -0.86, -71.47 451.23 80
7 12/03/2023 03:04:54 0.02, -75.42 -0.18, -76.38 108.72 80
8 12/05/2023 02:45:29 0.02, -75.50 0.65, -72.33 358.80 80
9 12/05/2023 15:08:15 -0.02, -75.55 0.35, -77.22 190.73 80
10 12/07/2023 14:48:50 -0.01, -75.63 -0.52, -73.18 277.90 80
11 12/08/2023 03:11:43 0.01, -75.62 -0.51, -78.10 281.36 80
